User: anonymous   Login
Location: Unspecified
(0.0000°N, 0.0000°E)
Time: 10:13:57
(UTC+02:00)
Language:

H-2A R/B - Orbit

View from above orbital plane
View from above orbital plane
View from above satellite
View from above satellite

Ground track
Ground track

The orbit data is extracted from the following two-line orbital elements,

1 26899U 01038B   15209.92983808  .00001593  00000-0  61165-3 0  9990
2 26899 028.3916 344.5690 7133039 092.7980 016.3949 02.45935177119485
Epoch (UTC): 28 July 2015 22:18:58
Eccentricity: 0.7133039
inclination: 28.3916°
perigee height: 268 km
apogee height: 33343 km
right ascension of ascending node: 344.5690°
argument of perigee: 92.7980°
revolutions per day: 2.45935177
mean anomaly at epoch: 16.3949°
orbit number at epoch: 11948

The dashed part of the orbit path shows where the satellite is in the earth's shadow,  

DLR